P/2005 YQ127 (LINEAR)

Epoch 2005 Nov. 6.0 TT = JDT 2453680.5  

T 2005 Nov. 3.95910 TT                                  Nakano

q   1.9190530            (2000.0)            P               Q

n   0.12962204     Peri.  152.30383     +0.34400895     -0.89435290

a   3.8667861      Node   276.37791     +0.79949669     +0.43871988

e   0.5037085      Incl.   16.72461     +0.49240520     -0.08750859

P   7.60 (+/- 0.02 day)

From 170 observations 2005 Sept. 15-2006 Mar. 19, mean residual 0".71.

Residuals in seconds of arc 

2005/                     060106 A57  0.3-  0.5+    060119 215  0.8-  0.9-  

050915 704  0.0   0.5+    060106 A57  0.2-  0.6+    060119 215  1.0-  0.8-  

050915 704  0.4-  0.6-    060106 A57  0.7-  1.1+    060122 D88  0.5-  0.3+  

050915 704  0.6+  1.6+    060106 A57  0.6-  0.5+    060122 D88  0.3+  0.3-  

051103 704  0.4-  0.3+    060109 A30  0.3+  0.3-    060122 D88  0.5+  0.2-  

051103 704 (0.7+  2.2+)   060109 A30  0.6+  0.1-    060122 349  0.2+  0.0   

051103 704  1.7+  1.2+    060109 A30  0.5+  0.3+    060122 349  0.8+  0.5-  

051205 704  0.4+  0.4-    060109 A48  0.1-  0.2-    060122 349  0.8+  0.2+  

051205 704  0.3+  0.7-    060109 A48  0.8+  0.7+    060122 473  0.3+  0.8+  

051205 704  0.4+  0.5-    060109 A48  0.4+  0.4+    060122 473  0.3-  0.8+  

051205 704  0.2+  0.9-    060109 A48  0.3+  0.2+    060122 473  0.2+  1.7+  

051205 704  0.4+  0.3-    060109 A57  0.5+  0.6+    060122 130  0.1-  0.5+  

051210 691  0.1-  0.4-    060109 A57  0.6-  0.5-    060122 130  0.3-  0.1+  

051210 691  0.8+  1.9-    060109 560  0.4-  0.5+    060122 130  0.0   0.1+  

051210 691  0.1+  0.7-    060109 A57  0.6-  0.6+    060122 130  0.2-  0.2+  

051228 704  1.7-  1.1+    060109 A57  0.8+  0.3+    060122 A30  0.2+  0.0   

051228 704  0.2-  0.0     060109 560  0.3-  0.9+    060122 A30  0.0   0.0   

051228 704  0.4-  0.8-    060109 560  0.4-  0.9+    060122 A30  0.4-  0.4+  

051228 704  0.4-  0.3-    060109 147  0.1-  0.6+    060122 A30  0.4-  0.3+  

051228 704  1.1-  1.1+    060109 A57  0.5-  2.0+    060123 704  0.9+  0.9+  

051229 704  0.2+  0.1+    060109 147  0.2-  0.1-    060123 704  1.2+  0.9-  

051229 704  0.3+  1.0-    060109 A57  1.3-  0.6-    060123 704  0.3+  0.3-  

051229 704  0.0   1.1-    060109 A57  0.4-  0.2+    060123 704  1.6+  1.5-  

051229 704  0.2+  0.6-    060109 A57  0.3+  0.2-    060123 349  0.5-  0.5+  

051229 704  0.6-  1.9-    060109 203  0.4-  0.3+    060123 349  0.5-  0.8+  

051230 704  0.2+  1.4-    060110 203  0.1-  0.1+    060123 349  1.1-  0.7+  

051230 704  0.4+  1.1-    060110 204  0.2+  0.4+    060126 H45  0.3-  0.2-  

051230 704  1.0+  1.3-    060110 204  0.2+  0.0     060126 H45  1.4+  0.2-  

051230 704  0.7+  1.8-    060110 204  0.2-  0.1+    060126 H45  0.4-  0.1+  

051230 704  0.3+  1.9-    060110 H06  0.3-  0.1-    060128 D88  0.9-  1.2+  

051231 691  0.5-  0.4+    060110 H06  0.1-  0.1-    060128 D88  0.0   0.2+  

051231 691  0.3-  0.4+    060110 H06  0.2+  0.6-    060128 D88  0.7-  1.0+  

051231 691  0.8+  0.1-    060110 A48  0.8-  0.5+    060128 349  2.0+  0.4+  

051231 704  0.5+  0.5+    060110 A48  1.1-  0.6+    060128 349  1.9+  0.3+  

051231 704  0.1-  0.7-    060110 A48  1.0-  0.5+    060128 349  1.8+  0.4+  

051231 704  0.3+  0.4-    060110 A48  0.7-  0.5+    060204 704  0.4+  0.1-  

051231 704  0.2-  0.4+    060111 673  0.4-  0.4+    060204 704  0.2-  0.1+  

051231 704 (1.3-  3.6+)   060111 673  1.1-  0.8+    060204 704  0.3+  0.6-  

051231 704 (2.9-  0.4+)   060111 673  0.6-  0.3+    060204 704  0.6+  0.1-  

051231 704  0.1+  0.9-    060111 673  0.2-  0.4+    060204 704  0.0   0.3-  

051231 704  0.0   1.0-    060111 160  0.9-  0.7+    060205 349  1.3+  1.1-  

051231 704  0.3-  0.8-    060111 160  0.6-  0.0     060205 349  1.3+  1.3-  

2006/                     060111 160  0.2-  0.1+    060205 349  1.1+  1.3-  

060102 704  0.1-  0.3+    060111 160  0.9-  0.4+    060213 213  0.3-  0.1+  

060102 704  0.5+  0.2-    060111 160  0.3+  0.1-    060213 213  0.4-  0.1-  

060102 704  0.9+  0.3-    060111 160  0.6-  0.8+    060213 213  0.1+  0.0   

060102 704  0.1+  0.2-    060114 204  0.8-  0.1+    060216 213  0.3-  0.1-  

060102 704 (2.9+  0.1+)   060115 204  0.4+  0.4+    060216 213  0.3-  0.0   

060104 H45  0.2+  0.3-    060116 A80  0.1+  0.9+    060216 213  1.7-  0.8-  

060104 H45  0.8-  0.1+    060116 A80  0.4-  0.7+    060219 118  0.7-  0.8-  

060104 H45  0.4+  0.4+    060116 A80  0.0   0.6+    060219 118  0.6-  0.8-  

060104 H45  0.0   0.6+    060118 349  0.0   1.4+    060227 850  0.9+  1.7-  

060104 H45  0.1+  0.0     060118 349  0.0   1.0+    060227 850  1.8-  1.0-  

060105 704  0.7+  0.3+    060118 349  0.5-  0.8+    060227 850  0.9+  0.8+  

060105 704 (5.2+  0.0 )   060119 104  0.2-  0.6+    060227 850  1.7+  0.6+  

060105 704  0.6+  1.4-    060119 473  1.3-  0.3+    060227 850  1.3+  0.8-  

060105 704  0.3+  0.5-    060119 104  0.1-  0.5+    060227 850  0.1+  0.0   

060105 704  0.2+  0.1-    060119 104  0.1-  0.6+    060319 215  1.0+  1.2-  

060106 160  0.8-  1.0+    060119 215  0.9-  1.1-    060319 215  0.5+  0.6-  



NAKANO

         **** Don't distribute anyone except personal use only ****

                (C) Copyright 2006 OAA/ComputingSection

write mail from CFAD0::NAKANO on 2006-12-06 04:14:05(JST).

 



    P/2005 YQ127 (LINEAR)

Epoch 2005 Nov. 6.0 TT = JDT 2453680.5  

T 2005 Nov. 3.95350 TT                                  Nakano

q   1.9190511            (2000.0)            P               Q

n   0.12961916     Peri.  152.30141     +0.34404800     -0.89433742

a   3.8668434      Node   276.37782     +0.79947738     +0.43875548

e   0.5037164      Incl.   16.72469     +0.49240927     -0.08748836

P   7.60 (+/- 0.02 day)

From 157 observations 2005 Sept. 15-2006 Feb. 16, mean residual 0".66.



NAKANO

         **** Don't distribute anyone except personal use only ****

                (C) Copyright 2006 OAA/ComputingSection

write mail from CFAD0::NAKANO on 2006-03-01 01:58:59(JST).

 

◎P/2005 YQ127の軌道と予報位置です    [From YC 2500]



LINEAR新周期彗星  P/2005 YQ127 (LINEAR)

  LINEARサーベイで2005年12月28日におうし座を撮影したCCDフレーム上の次の位

置に発見された18等級の小惑星は,1月上旬の各地の追跡観測の結果,天体には,

10"内外のコマが観測され,この小惑星は,彗星であることが判明した.ハーゲン

ローザ(C. W. Hergenrother)による1.54-mカイパー望遠鏡では1月4日に拡散

した40"のコマが観測された(IAUC 8658).



   2005 UT             α     (2000)     δ             Mag.

   Dec. 28.28042   05h 58m 03s.15   +25゚ 25' 49".5      18.0



  OAA計算課では,2005年12月28日から2006年1月11日までに行なわれた85個の観

測から次の軌道を決定した.彗星は,周期が約7年半の新周期彗星であった.



   T = 2005 Nov. 3.790 TT

   ω = 152o.259                  e =   0.50480

   Ω = 276.369    (2000.0)       a =   3.87868 AU

   i =  16.763                   n゚=   0.129026

   q =   1.92074 AU              P =   7.64 年



2006/        α  (2000) δ      △      r    Daily Motion  Elong. Phase    m1 

  0h TT     h  m       。  ,        AU      AU     ,     。      。      。      等

Jan.  5   05 52.60  +23 33.0    1.033   1.997   15.7/209    163.9    7.9   17.1

     15   05 47.94  +21 19.2    1.098   2.022   12.3/195    152.5   13.0   17.3

     25   05 46.53  +19 25.5    1.184   2.050    9.8/171    141.9   17.3   17.5

Feb.  4   05 48.44  +17 53.6    1.288   2.081    9.8/141    132.1   20.6   17.7

     14   05 53.45  +16 41.4    1.408   2.115   11.8/121    123.1   23.0   18.0

     24   06 01.10  +15 44.6    1.539   2.152   14.3/109    114.9   24.7   18.3

Mar.  6   06 10.93  +14 58.9    1.680   2.190   16.7/104    107.3   25.6   18.5

     16   06 22.52  +14 20.0    1.828   2.230   18.8/101    100.2   26.0   18.8

     26   06 35.48  +13 44.2    1.981   2.273   20.4/100     93.6   26.0   19.0

Apr.  5   06 49.49  +13 08.9    2.138   2.316   21.7/ 99     87.3   25.6   19.3

                    m1 = 14.0 + 5 log △ + 10.0 log r





    P/2005 YQ127 (LINEAR)

T 2005 Nov. 3.79040 TT                                  Nakano

q   1.9207390            (2000.0)            P               Q

n   0.12902619     Peri.  152.25920     +0.34475855     -0.89385588

a   3.8786816      Node   276.36907     +0.79897634     +0.43971545

e   0.5047959      Incl.   16.76347     +0.49272543     -0.08758993

P   7.64 (+/- 1.12 days)

From 85 observations 2005 Dec. 28-2006 Jan. 11.

NAKANO

         **** Don't distribute anyone except personal use only ****

                (C) Copyright 2006 OAA/ComputingSection

write mail from CFAD0::NAKANO on 2006-01-18 23:43:39(JST).

 





戻ります。